This demonstration page uses our WeatherBlox Daily Observations layout. Learn more.

Left ArrowRight Arrow

Hourly Observations for January 1, 2022

Temp ( °F °C ) Dew Point ( °F °C ) Humidity (%) Winds ( mph kmh ) Pressure ( in mb ) Visibility ( mi km ) Precip ( " mm )
12:54 am 00:54 Cloudy 10 -12.2 1 -17.2 67 67 N 20 31 30.00 1016 10 16 0.00 0.00
1:54 am 01:54 Cloudy 10 -12.2 -2 -18.9 58 58 NNE 20 31 30.04 1017 10 16 0.00 0.00
2:54 am 02:54 Cloudy 8 -13.3 -4 -20 57 57 N 25 41 30.05 1018 10 16 0.00 0.00
3:54 am 03:54 Cloudy 7 -13.9 -5 -20.6 57 57 NNE 24 39 30.07 1018 10 16 0.00 0.00
4:54 am 04:54 Cloudy 6 -14.4 -7 -21.7 54 54 N 28 44 30.06 1018 10 16 0.00 0.00
5:54 am 05:54 Cloudy 5 -15 -9 -22.8 52 52 N 23 37 30.08 1019 10 16 0.00 0.00
6:54 am 06:54 Cloudy 4 -15.6 -7 -21.7 60 60 NNE 20 31 30.08 1019 10 16 0.00 0.00
7:54 am 07:54 Cloudy 3 -16.1 -8 -22.2 60 60 N 22 35 30.12 1020 10 16 0.00 0.00
8:54 am 08:54 Cloudy 4 -15.6 -9 -22.8 54 54 N 20 31 30.15 1021 10 16 0.00 0.00
9:54 am 09:54 Cloudy 4 -15.6 -9 -22.8 54 54 N 22 35 30.19 1022 9 14 0.00 0.00
10:01 am 10:01 Windy with Snow Likely 4 -15.6 -9 -22.8 54 54 N 24 39 30.26 1025 3 4 0.00 0.00
10:10 am 10:10 Mostly Cloudy with Light Snow 3 -16.1 -7 -21.7 62 62 N 24 39 30.26 1025 1 1 0.00 0.00
10:18 am 10:18 Mostly Cloudy with Snow 3 -16.1 -7 -21.7 62 62 N 25 41 30.27 1025 1 1 0.00 0.00
10:26 am 10:26 Mostly Cloudy with Snow 3 -16.1 -5 -20.6 69 69 N 25 41 30.26 1025 1 1 0.00 0.00
10:54 am 10:54 Mostly Cloudy with Light Snow 2 -16.7 -5 -20.6 72 72 N 25 41 30.21 1023 1 1 0.00 0.00
11:54 am 11:54 Mostly Cloudy with Heavy Snow 3 -16.1 -4 -20 72 72 NNE 24 39 30.19 1022 0 0 0.02 0.51
12:42 pm 12:42 Mostly Cloudy with Snow 3 -16.1 -4 -20 72 72 N 25 41 30.22 1024 1 1 0.03 0.76
12:54 pm 12:54 Mostly Cloudy with Snow 3 -16.1 -4 -20 72 72 N 24 39 30.16 1021 1 1 0.03 0.76
1:14 pm 13:14 Mostly Cloudy with Light Snow 4 -15.6 -3 -19.4 73 73 N 20 31 30.24 1024 1 1 0.00 0.00
1:36 pm 13:36 Windy with Snow Likely 3 -16.1 -4 -20 72 72 N 24 39 30.24 1024 1 1 0.01 0.25
1:52 pm 13:52 Mostly Cloudy with Light Snow 3 -16 -4 -20 72 72 N 24 39 30.22 1024 1 1 0.01 0.25
1:54 pm 13:54 Mostly Cloudy with Light Snow 3 -16.1 -4 -20 72 72 N 24 39 30.16 1021 1 1 0.01 0.25
2:09 pm 14:09 Mostly Cloudy with Snow 3 -16.1 -4 -20 72 72 N 26 43 30.25 1024 1 1 0.01 0.25
2:47 pm 14:47 Mostly Cloudy with Light Snow 3 -16.1 -3 -19.4 76 76 N 22 35 30.25 1024 1 2 0.01 0.25
2:54 pm 14:54 Windy with Snow Likely 3 -16.1 -4 -20 72 72 N 23 37 30.19 1022 1 2 0.01 0.25
3:54 pm 15:54 Windy with Snow Likely 4 -15.6 -3 -19.4 73 73 N 21 33 30.21 1023 2 3 0.01 0.25
4:11 pm 16:11 Windy with Snow Likely 4 -15.6 -3 -19.4 73 73 N 21 33 30.26 1025 3 5 0.00 0.00
4:19 pm 16:19 Cloudy with Light Snow 4 -15.6 -3 -19.4 73 73 N 16 26 30.27 1025 4 6 0.00 0.00
4:54 pm 16:54 Cloudy with Light Snow 4 -15.6 -3 -19.4 73 73 N 16 26 30.22 1023 7 11 0.00 0.00
5:54 pm 17:54 Cloudy 5 -15 -6 -21.1 60 60 N 18 30 30.24 1024 10 16 0.00 0.00
6:54 pm 18:54 Partly Cloudy 5 -15 -7 -21.7 57 57 N 18 30 30.26 1025 10 16 0.00 0.00
7:54 pm 19:54 Mostly Cloudy 5 -15 -7 -21.7 57 57 N 16 26 30.29 1026 10 16 0.00 0.00
8:54 pm 20:54 Cloudy 4 -15.6 -8 -22.2 57 57 N 17 28 30.32 1027 10 16 0.00 0.00
9:54 pm 21:54 Clear 3 -16.1 -9 -22.8 57 57 N 14 22 30.33 1027 10 16 0.00 0.00
10:54 pm 22:54 Clear 1 -17.2 -10 -23.3 59 59 NNW 8 13 30.36 1028 10 16 0.00 0.00
11:54 pm 23:54 Clear 0 -17.8 -11 -23.9 59 59 NNW 7 11 30.37 1028 10 16 0.00 0.00

Powered by AerisWeather